Location: Cortos
(40.7190°N, 4.5893°W)
Time: 19:15:20
(UTC+00:00)

Cosmos 1626 - Pass Details

Date: 05 July 2020
Orbit: 491 x 495 km, 82.5° (Epoch: 06 August)

Event Time Altitude Azimuth Distance (km) Brightness Sun altitude
Rises 20:31:16 0° 211° (SSW) 2,564 5.7 -6.9°
Reaches altitude 10° 20:33:34 10° 223° (SW) 1,686 4.9 -7.2°
Maximum altitude 20:36:47 28° 284° (WNW) 960 4.4 -7.7°
Drops below altitude 10° 20:40:01 10° 344° (NNW) 1,697 5.8 -8.2°
Sets 20:42:21 0° 357° (N) 2,583 6.5 -8.5°
